Location: Kulovesi
(61.4500°N, 23.2000°E)
Time: 07:43:36
(UTC+00:00)

Daily predictions for brighter satellites

Satellite Brightness Start Highest point End
(mag) Time Altitude Azimuth Time Altitude Azimuth Time Altitude Azimuth
NOSS 3-1 (C) 4.1 21:32:49 10° W 21:39:16 77° N 21:47:02 10° E
Cosmos 1943 Rocket 2.2 21:36:53 10° SW 21:42:29 88° SE 21:48:11 10° NE
Cosmos 1992 Rocket 4.2 21:37:33 10° SSW 21:42:39 58° ESE 21:47:47 10° NE
Cosmos 2297 4.3 21:37:09 10° WSW 21:42:51 64° NW 21:48:36 10° NE
NOSS 2-2 (E) 3.5 21:39:24 10° SW 21:43:17 73° SSE 21:48:14 10° ENE
NOSS 3-4 (A) 4.1 21:38:37 10° SSW 21:44:07 37° SE 21:50:02 10° ENE
NOSS 3-4 (C) 4.1 21:38:44 10° SSW 21:44:14 37° SE 21:50:08 10° ENE
NOSS 3-1 (A) 4.0 21:37:56 10° W 21:44:18 76° N 21:51:59 10° E
Cosmos 2315 Rocket 4.1 21:39:01 10° NNW 21:45:17 87° WSW 21:51:30 10° S
SL-16 R/B 4.2 21:40:12 10° ESE 21:45:31 32° NE 21:50:53 10° NNW
Cosmos 1461 3.3 21:46:19 10° WSW 21:50:41 77° NNW 21:55:16 10° ENE
Cosmos 1975 Rocket 4.4 21:47:44 10° SW 21:51:54 39° WNW 21:56:03 10° N
Cosmos 2084 Rocket 3.7 21:47:53 10° WNW 21:52:19 84° NNE 21:56:49 10° ESE
BREEZE-M DEB (TANK) 4.3 21:47:06 10° WSW 21:53:10 22° SSW 21:56:01 10° SE
Cosmos 2227 Rocket 2.4 21:47:33 10° NW 21:53:18 79° NE 21:59:00 10° SE
Cosmos 292 Rocket 3.9 21:50:45 10° SSW 21:55:38 90° ESE 22:00:33 10° NE
RESURS DK-1 4.0 21:54:33 10° SSE 21:57:38 20° ESE 22:00:43 10° ENE
Cosmos 1340 Rocket 3.8 21:54:16 10° NNW 21:58:04 39° W 22:01:52 10° SSW
Cosmos 2369 Rocket 2.3 21:52:59 10° SW 21:58:41 86° SE 22:04:22 10° NE
Aureole 3 3.6 21:56:43 10° NNW 22:00:05 43° W 22:03:02 10° SSW
Thor Agena Rocket 3.8 21:55:01 10° NNE 22:00:21 80° WNW 22:05:38 10° SSW
Cosmos 1908 3.5 21:59:27 10° NNW 22:03:14 59° W 22:07:00 10° S
ATLAS CENTAUR R/B 2.3 22:00:34 10° SSW 22:04:17 30° SE 22:07:49 10° ENE
Cosmos 1626 3.6 22:02:11 10° SSE 22:05:22 27° E 22:08:34 10° NNE
Cosmos 1953 3.6 22:02:40 10° NNW 22:06:14 31° W 22:09:46 10° SSW
NOSS 2-2 (C) 3.5 22:04:01 10° WSW 22:07:53 81° SSE 22:12:48 10° ENE
Cosmos 1025 Rocket 3.5 22:04:19 10° SSW 22:08:33 58° WNW 22:12:51 10° N
Cosmos 1656 Rocket 3.7 22:06:43 10° SSW 22:12:17 69° SE 22:17:49 10° NE
ATLAS 2AS CENTAUR R/B 3.2 22:04:49 10° SSW 22:12:35 56° SE 22:20:10 10° ENE
Nadezhda 1 Rocket 4.4 22:09:05 10° NNW 22:15:13 62° ENE 22:21:25 10° SSE
APEX 4.0 22:10:56 10° SW 22:16:54 83° SE 22:21:38 10° NE
Cosmos 2292 Rocket 2.9 22:14:00 10° SSW 22:17:27 78° WNW 22:20:28 10° NNE
KORONAS-FOTON 3.9 22:17:43 10° S 22:21:33 73° ESE 22:25:26 10° NNE
Cosmos 1356 Rocket 3.7 22:18:05 10° NNW 22:22:16 71° ENE 22:26:30 10° SSE
SL-4 R/B 3.0 22:21:10 10° SW 22:22:27 14° W 22:23:45 10° WNW
Cosmos 1655 Rocket 4.4 22:16:33 10° SSW 22:22:46 66° WNW 22:29:03 10° NNE
Cosmos 2278 Rocket 4.2 22:18:20 10° W 22:23:32 35° NNW 22:28:44 10° NE
Uosat 12 SS-18 rocket 4.0 22:19:05 10° WNW 22:23:33 82° SSW 22:27:52 10° ESE
Cosmos 2228 3.6 22:19:58 10° NNW 22:24:05 47° W 22:28:09 10° S
Cosmos 1726 Rocket 3.9 22:20:39 10° NNW 22:24:53 54° W 22:29:06 10° S
ATLAS 5 CENTAUR R/B 2.2 22:23:32 10° SSW 22:25:31 19° SSE 22:27:08 10° E
Cosmos 1300 2.7 22:25:28 10° NNW 22:29:19 82° WSW 22:33:08 10° S
Cosmos 1892 Rocket 3.9 22:25:30 10° S 22:29:48 59° E 22:34:07 10° NNE
SL-4 R/B 3.6 22:26:26 10° SW 22:30:11 23° SSE 22:33:55 10° ESE
ERBS 3.0 22:28:03 10° W 22:31:02 31° SSW 22:34:02 10° SE
Cosmos 921 Rocket 3.9 22:32:18 10° S 22:36:17 37° ESE 22:40:21 10° NE
In-Cosmos 22 4.3 22:31:10 10° SSW 22:36:27 70° WNW 22:41:47 10° NNE
Meteor 1-24 Rocket 4.0 22:33:35 10° S 22:38:52 59° E 22:44:20 10° NNE
Resurs 1-4 Rocket 4.3 22:35:42 10° NE 22:39:01 16° E 22:42:20 10° ESE
Meteor 2-1 Rocket 4.4 22:34:37 10° NNW 22:40:10 74° ENE 22:45:43 10° SSE
Cosmos 2266 Rocket 4.3 22:34:57 10° SSW 22:41:00 65° WNW 22:47:02 10° NNE
CZ-4C R/B 4.2 22:38:47 10° SE 22:41:07 13° ESE 22:43:37 10° E
SJ 16-02 1.4 22:36:59 10° NNW 22:41:26 81° WSW 22:45:53 10° SSE
Cosmos 1437 3.7 22:40:36 10° SSE 22:43:21 33° E 22:46:08 10° NNE
Helios 1B rocket 3.2 22:41:42 10° NNE 22:45:40 42° E 22:49:37 10° S
Cosmos 1674 3.1 22:49:02 10° SSW 22:52:46 58° WNW 22:56:33 10° N
CZ-2D R/B 4.1 22:49:12 10° NE 22:52:55 19° E 22:56:36 10° SE
MOZ.5/SAFIR/RUBIN 5/SL-8 4.5 22:51:00 10° SE 22:55:30 55° ENE 23:00:05 10° NNW
Cosmos 2219 3.7 22:50:37 10° NW 22:55:59 44° WSW 23:01:18 10° S
STARLINK-60 4.5 22:56:05 10° SW 22:58:19 18° S 23:00:33 10° SE
USA 215 4.4 22:54:12 10° S 22:59:06 22° SW 23:04:02 10° W
Cosmos 2297 Rocket 2.6 22:54:55 10° NW 23:00:20 48° WSW 23:05:44 10° S
COSMOS 2455 2.9 22:54:54 10° SW 23:00:53 71° SE 23:06:56 10° NE
Cosmos 1745 Rocket 4.4 22:56:23 10° S 23:02:24 59° E 23:08:25 10° NNE
GEOS 3 Rocket 3.8 22:57:19 10° SE 23:02:30 58° SW 23:07:47 10° WNW
PSLV R/B 4.0 22:58:25 10° NNE 23:02:58 59° ESE 23:07:21 10° S
Cosmos 2263 Rocket 2.9 22:59:05 10° NW 23:04:41 59° NE 23:10:13 10° ESE
Lacrosse 4 Rocket 1.6 23:00:31 10° NW 23:04:50 57° SW 23:09:02 10° SSE
Helios 1A 4.4 23:02:21 10° SSW 23:05:54 26° W 23:09:28 10° NW
